Regional Weather Roundup
Issued by NWS

Home | Current Version | Previous Version | Graphics & Text | Print | Product List | Glossary Off
Versions: 1 2 3 4 5 6 7 8 9 10 11 12 13 14 15 16 17 18 19 20 21 22 23 24 25 26 27 28 29 30 31 32 33 34 35 36 37 38 39 40 41 42 43 44 45 46 47 48 49 50

130
ASUS43 KDMX 282108
RWRIA

WEATHER ROUNDUP FOR IOWA
NATIONAL WEATHER SERVICE DES MOINES IA
400 PM CDT WED SEP 28 2016

NOTE: "FAIR" INDICATES FEW OR NO CLOUDS BELOW 12,000 FEET WITH NO
SIGNIFICANT WEATHER AND/OR OBSTRUCTIONS TO VISIBILITY.

* - THESE STATIONS ARE NOT NWS STATIONS...THUS NOT UNDER NWS
QUALITY CONTROL.  THEY ALSO DO NOT REPORT WEATHER SUCH
AS PRECIPITATION OR FOG.

IAZ001>003-012>014-020>022-031>034-043>046-282200-
   NORTHWEST IOWA

CITY           SKY/WX    TMP DP  RH WIND       PRES   REMARKS
CARROLL *      PTSUNNY   64  48  55 N15G23    30.19R
CHEROKEE *     PTSUNNY   60  49  65 N10       30.24R
DENISON *      PTSUNNY   63  48  59 N13       30.20R
LE MARS *      MOSUNNY   61  46  59 N10G17    30.26S
ORANGE CITY *  MOSUNNY   61  46  59 NE9G16    30.26R
SHELDON *      CLOUDY    59  46  63 N8G16     30.25R
SIOUX CITY     SUNNY     65  48  54 NE9       30.24R
SPENCER        CLOUDY    62  47  57 N16       30.24R
STORM LAKE *   SUNNY     63  46  55 N12G21    30.22R
$$

IAZ055>058-069>071-079>083-090>094-282200-
   SOUTHWEST IOWA

CITY           SKY/WX    TMP DP  RH WIND       PRES   REMARKS
ATLANTIC *     PTSUNNY   64  48  55 N12       30.19R
AUDUBON *      PTSUNNY   64  48  55 N10G18    30.20R
CLARINDA *       N/A     66  46  48 MISG      30.20R
COUNCIL BLFS * SUNNY     64  46  52 N10G21    30.21R
CRESTON *      CLOUDY    61  46  59 NE14G23   30.19R
HARLAN  *      MOSUNNY   63  46  55 N13G20    30.24R
LAMONI         PTSUNNY   60  48  64 N15       30.17R
RED OAK *      SUNNY     64  48  55 N14G20    30.20R
SHENANDOAH *   SUNNY     66  46  48 N10       30.20R
$$

IAZ047>049-059>061-072>074-084-282200-
   CENTRAL IOWA

CITY           SKY/WX    TMP DP  RH WIND       PRES   REMARKS
AMES           CLOUDY    59  50  72 N16       30.17R
ANKENY *         N/A    N/A N/A N/A MISG        N/A
BOONE *        CLOUDY    59  48  67 N17       30.18R
CHARITON *       N/A     61  48  63 NW17      30.15R
DES MOINES     CLOUDY    61  49  64 N10       30.17R
GRINNELL*      CLOUDY    61  47  61 N10G16    30.14R
KNOXVILLE *    CLOUDY    61  46  59 N12       30.14R
MARSHALLTOWN   CLOUDY    61  49  64 N16       30.14R
NEWTON *       CLOUDY    61  48  63 N12       30.14R
PELLA *        CLOUDY    61  47  61 N12G18    30.15R
PERRY *        CLOUDY    62  49  63 N13G20    30.20R
$$

IAZ004>006-015-016-023>025-035-036-282200-
   NORTH CENTRAL IOWA

CITY           SKY/WX    TMP DP  RH WIND       PRES   REMARKS
ALGONA *       CLOUDY    59  46  63 N14       30.22R
CLARION *      CLOUDY    59  48  67 N14G20    30.20R
ESTHERVILLE    CLOUDY    59  48  67 N15       30.23R
FORT DODGE *   CLOUDY    59  46  63 N8G17     30.22R
MASON CITY     PTSUNNY   61  48  62 N14G24    30.19R
FOREST CITY *  CLOUDY    59  46  63 N16       30.19S
WEBSTER CITY * CLOUDY    59  48  67 N13G20    30.18R
IOWA FALLS *   CLOUDY    61  49  65 N14       30.18R
$$

IAZ007>011-017>019-026>030-037>042-050>054-066-282200-
   NORTHEAST IOWA

CITY           SKY/WX    TMP DP  RH WIND       PRES   REMARKS
CEDAR RAPIDS   PTSUNNY   62  50  64 N16       30.10R
CHARLES CITY * CLOUDY    63  48  59 N10G17    30.15R
CLINTON *      MOSUNNY   64  49  57 N17G26    30.06R
DECORAH *      PTSUNNY   57  54  88 N7        30.14R
DUBUQUE        PTSUNNY   61  50  67 N15       30.08R
MONTICELLO *   CLOUDY    63  46  55 N10G17    30.09R
OELWEIN *      CLOUDY    63  48  59 NE12G21   30.14R
WATERLOO       CLOUDY    61  50  67 N15       30.13R
$$

IAZ064-065-067-068-078-282200-
   EAST CENTRAL IOWA

CITY           SKY/WX    TMP DP  RH WIND       PRES   REMARKS
DAVENPORT      CLOUDY    61  47  59 N15G25    30.07R
IOWA CITY      CLOUDY    63  48  58 N14       30.10R
MT. PLEASANT * CLOUDY    65  47  53 N14G21    30.09R
MUSCATINE *    CLOUDY    64  46  52 N14G21    30.07R
QUAD CITIES    CLOUDY    63  47  55 N12       30.05R
$$

IAZ062-063-075>077-085>089-095>099-282200-
   SOUTHEAST IOWA

CITY           SKY/WX    TMP DP  RH WIND       PRES   REMARKS
BURLINGTON     CLOUDY    62  48  60 N10       30.06R
FAIRFIELD *    CLOUDY    63  46  55 N9G18     30.09R
FORT MADISON *   N/A     63  48  59 NW8G16    30.08R
KEOKUK *       CLOUDY    63  48  59 N10G20    30.07R
OSKALOOSA *    CLOUDY    62  47  58 N13G18    30.12R
OTTUMWA        CLOUDY    63  46  54 N16       30.12R
WASHINGTON *     N/A    N/A N/A N/A MISG        N/A
$$

ABBREVIATIONS USED IN REMARKS
   TC - TEMPERATURES IN CELSIUS
  WCI - WIND CHILL INDEX
   HX - HEAT INDEX
  VSB - VISIBILITY
$$





USA.gov is the U.S. government's official web portal to all federal, state and local government web resources and services.